WS Maaseik 1 Meer informatie WS Maaseik 1


WS Maaseik 2 Meer informatie WS Maaseik 2


Regen radar Meer informatie rain snow radar


Bezoek onze andere website:

Vorige versie
weerstation Maaseik


Bezoek ook eens deze sites:

Weerstation Geleen



We konden geen weer-waarchuwingen ophalen. Ga rechtstreeks naar de Meteoalarm site : www.meteoalarm.eu en controleer daar .

15 daagse weersverwachting Borås (SE)

  • Overzicht
  • Per uur
  • 15 dagen
  • Extra
  • Vergelijk
  • Kaarten
  • Dagkaart
  • Meer »
  • Info
  • Statistieken
  • Directe link
    Temp 6h Neerslag Wind  
 05:33     20:54    Daglengte: 15:21 Vandaag
20:00
25°
 
1
 05:35     20:51    Daglengte: 15:16 Morgen
02:00
18°
 
2
08:00
20°
 
3
14:00
26°
 
4
20:00
23°
 
2
 05:37     20:49    Daglengte: 15:12 Dinsdag 16 Aug
02:00
19°
 
3
08:00
19°
 
3
warningclass
14:00
25°
8.0 mm
4
warningclass
20:00
20°
30.0 mm
3
 05:40     20:46    Daglengte: 15:06 Woensdag 17 Aug
02:00
18°
28.9 mm
2
08:00
18°
 
3
Locatie info
Region: Västra Götalands län
Latitude: 57.7201°N
Longitude: 12.9453°E
143 masl
Postcode: 503 36
Temp/Neerslag /Baro Onweer/Dauwpunt
    Temp Baro 1h Neerslag Dauwpunt Wind UV Bewolking  
 05:33     20:54    Daglengte: 15:21 Vandaag
15:00
29°
Voelt als: 27.5°
1014.8 hPa   7.3°
1
Windvlaag: 4.3 m/s
16%
16:00
29°
Voelt als: 27.7°
1014.0 hPa   6.7°
1
Windvlaag: 4.2 m/s
19%
17:00
29°
Voelt als: 27.7°
1013.4 hPa   6.7°
1
Windvlaag: 4.2 m/s
15%
18:00
29°
Voelt als: 27.3°
1012.7 hPa   6.8°
2
Windvlaag: 4 m/s
16%
19:00
28°
Voelt als: 27.0°
1012.4 hPa   9.3°
2
Windvlaag: 4.8 m/s
15%
20:00
25°
1012.2 hPa   13.5°
1
Windvlaag: 3.9 m/s
54%
21:00
23°
1012.6 hPa   18.4°
0
Windvlaag: 1.5 m/s
33%
22:00
20°
1012.5 hPa   17.1°
1
Windvlaag: 0.7 m/s
14%
23:00
19°
1012.5 hPa   16.7°
2
Windvlaag: 1.1 m/s
13%
 05:35     20:51    Daglengte: 15:16 Morgen
00:00
19°
1012.6 hPa   15.1°
3
Windvlaag: 2 m/s
33%
01:00
19°
1012.6 hPa   15.5°
3
Windvlaag: 5 m/s
29%
02:00
18°
1012.5 hPa   16.2°
2
Windvlaag: 4.6 m/s
46%
03:00
17°
1012.3 hPa   16.2°
2
Windvlaag: 3.7 m/s
44%
04:00
16°
1012.1 hPa   15.2°
2
Windvlaag: 2.4 m/s
54%
05:00
16°
1011.7 hPa   14.9°
2
Windvlaag: 1.8 m/s
45%
06:00
16°
1011.2 hPa   15.0°
2
Windvlaag: 0.3 m/s
56%
07:00
17°
1010.9 hPa   15.8°
2
Windvlaag: 1 m/s
36%
08:00
20°
1010.7 hPa   15.7°
3
Windvlaag: 2.2 m/s
19%
09:00
22°
1010.6 hPa
12%
15.2°
3
Windvlaag: 3.1 m/s
19%
10:00
24°
1010.4 hPa
12%
15.8°
3
Windvlaag: 4.4 m/s
18%
11:00
24°
1010.1 hPa
17%
21.2°
3
Windvlaag: 4.8 m/s
16%
12:00
26°
1009.6 hPa
13%
19.6°
3
Windvlaag: 5.3 m/s
21%
13:00
26°
1009.0 hPa
75%
21.1°
4
Windvlaag: 6.6 m/s
23%
14:00
26°
1008.9 hPa
79%
22.5°
4
Windvlaag: 6.3 m/s
23%
15:00
27°
1008.6 hPa
77%
20.2°
3
Windvlaag: 5.3 m/s
25%
16:00
27°
1008.3 hPa
82%
16.1°
3
Windvlaag: 5 m/s
31%
17:00
26°
1008.2 hPa
82%
22.4°
3
Windvlaag: 5.5 m/s
86%
18:00
25°
1008.0 hPa
82%
22.9°
2
Windvlaag: 4.1 m/s
43%
19:00
24°
1007.8 hPa
80%
22.5°
2
Windvlaag: 3.9 m/s
45%
20:00
23°
1007.8 hPa
18%
21.7°
2
Windvlaag: 4.1 m/s
47%
21:00
22°
1008.2 hPa
16%
20.9°
2
Windvlaag: 3.9 m/s
46%
22:00
21°
1008.3 hPa
18%
20.1°
2
Windvlaag: 2.1 m/s
32%
23:00
20°
1008.3 hPa
17%
19.2°
2
Windvlaag: 1.4 m/s
13%
 05:37     20:49    Daglengte: 15:12 Dinsdag 16 Aug
00:00
20°
1008.5 hPa
14%
18.6°
2
Windvlaag: 3.7 m/s
55%
01:00
19°
1008.5 hPa
14%
18.1°
3
Windvlaag: 3.9 m/s
31%
02:00
19°
1008.3 hPa
14%
17.5°
3
Windvlaag: 4.1 m/s
12%
03:00
19°
1008.1 hPa
14%
17.3°
3
Windvlaag: 3.8 m/s
35%
04:00
18°
1007.7 hPa
14%
17.0°
3
Windvlaag: 3.4 m/s
26%
05:00
18°
1007.6 hPa
15%
17.1°
2
Windvlaag: 3.1 m/s
20%
06:00
18°
1007.5 hPa
21%
17.3°
2
Windvlaag: 3.2 m/s
17%
07:00
19°
1007.5 hPa
73%
17.6°
3
Windvlaag: 3.3 m/s
24%
08:00
19°
1007.3 hPa
80%
18.1°
3
Windvlaag: 3.6 m/s
35% warningclass
09:00
21°
1007.2 hPa
77%
19.4°
3
Windvlaag: 5.1 m/s
57%
10:00
22°
1007.2 hPa
82%
20.1°
4
Windvlaag: 6.1 m/s
57%
11:00
24°
1007.3 hPa 2.4 mm
100%
15.4°
4
Windvlaag: 7 m/s
41% warningclass
12:00
25°
1007.1 hPa 2.4 mm
100%
14.2°
4
Windvlaag: 7 m/s
77% warningclass
13:00
25°
1007.1 hPa 1.4 mm
100%
13.5°
4
Windvlaag: 7.3 m/s
85% warningclass
14:00
25°
1006.9 hPa 1.9 mm
100%
13.0°
4
Windvlaag: 7.3 m/s
98% warningclass
15:00
23°
1006.6 hPa 2.6 mm
100%
18.6°
3
Windvlaag: 7.4 m/s
99% warningclass
16:00
22°
1006.6 hPa 4.3 mm
100%
19.9°
3
Windvlaag: 6.2 m/s
86% warningclass
17:00
22°
1006.8 hPa 5.7 mm
100%
18.9°
3
Windvlaag: 6.2 m/s
99% warningclass
18:00
21°
1006.7 hPa 5.0 mm
100%
17.1°
3
Windvlaag: 5.1 m/s
89% warningclass
19:00
21°
1006.9 hPa 4.6 mm
100%
14.8°
3
Windvlaag: 4.9 m/s
57%
20:00
20°
1007.1 hPa 7.9 mm
30%
15.4°
3
Windvlaag: 6 m/s
25%
21:00
20°
1007.6 hPa 7.0 mm
21%
15.2°
3
Windvlaag: 5.9 m/s
88%
22:00
19°
1007.8 hPa 7.6 mm
35%
15.2°
3
Windvlaag: 6.1 m/s
85%
23:00
19°
1008.2 hPa 7.3 mm
32%
15.3°
3
Windvlaag: 6.2 m/s
69%
 05:40     20:46    Daglengte: 15:06 Woensdag 17 Aug
00:00
18°
1008.6 hPa 7.0 mm
38%
15.4°
3
Windvlaag: 6.2 m/s
74%
01:00
18°
1008.8 hPa
23%
16.3°
2
Windvlaag: 5.5 m/s
68%
02:00
18°
1008.8 hPa
69%
16.7°
2
Windvlaag: 5.9 m/s
67%
03:00
18°
1008.8 hPa
21%
17.0°
2
Windvlaag: 5 m/s
76%
04:00
18°
1008.8 hPa
21%
17.2°
2
Windvlaag: 4.9 m/s
83%
05:00
17°
1008.8 hPa
21%
17.5°
2
Windvlaag: 4.5 m/s
97%
06:00
17°
1008.6 hPa
21%
17.2°
2
Windvlaag: 6.5 m/s
69%
07:00
17°
1008.7 hPa
21%
17.5°
2
Windvlaag: 3.5 m/s
33%
08:00
18°
1009.1 hPa
21%
18.2°
3
Windvlaag: 5.8 m/s
90%
09:00
19°
1009.3 hPa
21%
19.4°
4
Windvlaag: 4.1 m/s
63%
10:00
21°
1009.5 hPa
28%
18.2°
4
Windvlaag: 6.1 m/s
53%
11:00
22°
1009.6 hPa
33%
17.8°
4
Windvlaag: 4.7 m/s
15%
12:00
23°
1009.6 hPa
29%
17.3°
4
Windvlaag: 4.6 m/s
17%
13:00
23°
1009.7 hPa
25%
16.3°
4
Windvlaag: 4.2 m/s
65%
14:00
23°
1010.0 hPa
21%
15.1°
4
Windvlaag: 4.6 m/s
91%
Temp/Neerslag /Baro Onweer/Dauwpunt
    Temp Baro Neerslag Dauwpunt Wind Bewolking  
 05:33     20:54    Daglengte: 15:21 Vandaag
17:00
29°
Voelt als: 27.7°
1013.4 hPa   6.7°
1
15%
20:00
25°
1012.2 hPa   13.5°
1
54%
23:00
19°
1012.5 hPa   16.7°
2
13%
 05:35     20:51    Daglengte: 15:16 Morgen
02:00
18°
1012.5 hPa   16.2°
2
46%
05:00
16°
1011.7 hPa   14.9°
2
45%
08:00
20°
1010.7 hPa   15.7°
3
19%
11:00
24°
1010.1 hPa   21.2°
3
16%
14:00
26°
1008.9 hPa   22.5°
4
23%
17:00
26°
1008.2 hPa   22.4°
3
86%
20:00
23°
1007.8 hPa   21.7°
2
47%
23:00
20°
1008.3 hPa   19.2°
2
13%
 05:37     20:49    Daglengte: 15:12 Dinsdag 16 Aug
02:00
19°
1008.3 hPa   17.5°
3
12%
05:00
18°
1007.6 hPa   17.1°
2
20%
08:00
19°
1007.3 hPa   18.1°
3
35% warningclass
11:00
24°
1007.3 hPa 2.4 mm 15.4°
4
41% warningclass
14:00
25°
1006.9 hPa 5.6 mm 13.0°
4
98% warningclass
17:00
22°
1006.8 hPa 12.6 mm 18.9°
3
99% warningclass
20:00
20°
1007.1 hPa 17.4 mm 15.4°
3
25%
23:00
19°
1008.2 hPa 22.0 mm 15.3°
3
69%
 05:40     20:46    Daglengte: 15:06 Woensdag 17 Aug
02:00
18°
1008.8 hPa 7.0 mm 16.7°
2
67%
05:00
17°
1008.8 hPa   17.5°
2
97%
08:00
18°
1009.1 hPa   18.2°
3
90%
11:00
22°
1009.6 hPa   17.8°
4
15%
14:00
23°
1010.0 hPa   15.1°
4
91%
17:00
27°
Voelt als: 27.0°
1011.6 hPa 14.4 mm 13.4°
3
1%
20:00
21°
1011.7 hPa 14.4 mm 14.8°
1
1%
23:00
19°
1012.2 hPa 14.4 mm 13.2°
0
1%
 05:42     20:43    Daglengte: 15:01 Donderdag 18 Aug
02:00
18°
1012.1 hPa 14.4 mm 12.9°
1
1%
05:00
18°
1011.6 hPa 14.4 mm 13.5°
1
1%
08:00
20°
1011.9 hPa 14.5 mm 14.6°
1
1%
11:00
25°
1011.8 hPa 14.6 mm 14.9°
1
1%
14:00
28°
Voelt als: 27.6°
1011.1 hPa 14.6 mm 14.0°
3
1%
17:00
28°
Voelt als: 28.2°
1010.0 hPa 14.6 mm 14.2°
1
1%
20:00
23°
1009.8 hPa 14.6 mm 17.6°
2
1%
23:00
20°
1010.3 hPa 15.8 mm 16.7°
3
1%
 05:44     20:41    Daglengte: 14:57 Vrijdag 19 Aug
02:00
17°
1010.2 hPa 16.5 mm 16.3°
2
1%
05:00
17°
1010.1 hPa 16.6 mm 15.9°
2
1%
08:00
19°
1010.0 hPa 16.9 mm 16.3°
2
1%
11:00
24°
1010.0 hPa 17.0 mm 15.5°
2
1%
14:00
25°
1009.3 hPa 17.2 mm 15.8°
2
1%
17:00
21°
1008.7 hPa 18.8 mm 18.6°
3
1%
20:00
17°
1009.4 hPa 23.2 mm 16.8°
3
1%
23:00
15°
1009.5 hPa 23.9 mm 14.9°
3
1%
 05:46     20:38    Daglengte: 14:52 Zaterdag 20 Aug
02:00
15°
1009.5 hPa 23.9 mm 14.1°
2
1%
05:00
14°
1009.5 hPa 23.9 mm 13.5°
2
1%
08:00
15°
1009.6 hPa 23.9 mm 14.2°
2
1%
11:00
18°
1009.5 hPa 23.9 mm 12.5°
3
1%
14:00
20°
1009.3 hPa 23.9 mm 10.8°
3
1%
20:00
16°
1008.7 hPa 23.9 mm 12.9°
4
1%
23:00
14°
1008.6 hPa 23.9 mm 11.8°
4
1%
 05:48     20:36    Daglengte: 14:48 Zondag 21 Aug
02:00
13°
1007.5 hPa 23.9 mm 11.3°
3
1%
05:00
13°
1005.9 hPa 23.9 mm 10.5°
4
1%
08:00
14°
1004.8 hPa 23.9 mm 10.7°
4
1%
11:00
17°
1003.5 hPa 23.9 mm 9.9°
5
1%
14:00
19°
1002.9 hPa 23.9 mm 10.6°
5
1%
17:00
18°
1003.7 hPa   12.5°
4
1%
20:00
15°
1004.6 hPa 48.6 mm 13.0°
3
1%
 05:50     20:33    Daglengte: 14:43 Maandag 22 Aug
02:00
13°
1005.7 hPa 51.1 mm 12.5°
2
1%
08:00
13°
1006.5 hPa 53.4 mm 10.8°
3
1%
14:00
18°
1008.7 hPa 53.4 mm 7.5°
6
1%
20:00
15°
1009.9 hPa 53.4 mm 9.5°
4
0%
 05:52     20:30    Daglengte: 14:38 Dinsdag 23 Aug
02:00
14°
1008.8 hPa 55.1 mm 13.2°
5
1%
08:00
15°
1008.9 hPa 61.7 mm 15.0°
3
1%
14:00
19°
1010.1 hPa 67.1 mm 16.9°
3
1%
20:00
17°
1011.8 hPa 70.4 mm 14.7°
2
1%
 05:54     20:28    Daglengte: 14:34 Woensdag 24 Aug
02:00
14°
1013.9 hPa 70.5 mm 13.6°
2
1%
08:00
13°
1015.8 hPa 70.6 mm 10.9°
3
0%
14:00
21°
1016.5 hPa 0.5 mm 11.0°
1
51%
20:00
17°
1017.0 hPa 0.6 mm 11.4°
1
50%
 05:57     20:25    Daglengte: 14:28 Donderdag 25 Aug
02:00
13°
1018.4 hPa 0.1 mm 10.2°
1
44%
08:00
15°
1018.8 hPa 0.1 mm 11.0°
1
41%
14:00
23°
1018.6 hPa 0.3 mm 11.0°
1
40%
20:00
18°
1018.2 hPa 0.7 mm 12.0°
0
51%
 05:59     20:22    Daglengte: 14:23 Vrijdag 26 Aug
02:00
14°
1019.0 hPa 0.4 mm 10.8°
1
54%
08:00
15°
1018.7 hPa 0.3 mm 11.5°
1
58%
14:00
22°
1018.2 hPa 1.3 mm 12.2°
1
64%
20:00
18°
1017.5 hPa 0.8 mm 12.7°
1
61%
 06:01     20:20    Daglengte: 14:19 Zaterdag 27 Aug
02:00
14°
1017.9 hPa 0.2 mm 11.5°
1
53%
08:00
15°
1017.8 hPa 0.1 mm 11.6°
1
47%
14:00
21°
1017.5 hPa 0.3 mm 11.0°
1
55%
20:00
17°
1017.2 hPa 0.5 mm 11.1°
0
54%
 06:03     20:17    Daglengte: 14:14 Zondag 28 Aug
02:00
13°
1017.9 hPa 0.2 mm 9.8°
1
47%
08:00
14°
1017.5 hPa 0.3 mm 10.5°
1
51%
14:00
22°
1016.6 hPa 1.0 mm 10.8°
1
47%
20:00
17°
1015.6 hPa 0.5 mm 11.3°
1
52%
 06:05     20:14    Daglengte: 14:09 Maandag 29 Aug
02:00
13°
1015.4 hPa 0.1 mm 10.8°
1
45%
08:00
14°
1014.7 hPa 0.4 mm 10.7°
1
46%
14:00
20°
1014.6 hPa 0.4 mm 9.6°
2
46%
  CAPE Lifted Index Hail Supercell Tornado SRH 3km CL BTM PRES CL TOP PRES Swiss DWD icon SMHI TS
 05:33     20:54    Daglengte: 15:21 Vandaag
15:00 0 J/kg 1.9 K 0 % 0 % 0 % 0 m²/s² 0 0 4.03 1
16:00 0 J/kg 1.6 K 0 % 0 % 0 % 0 m²/s² 0 0 3.85 2
17:00 0 J/kg 1.3 K 0 % 0 % 0 % 0 m²/s² 0 0 3.55 2
18:00 0 J/kg 0.9 K 0 % 0 % 0 % 0 m²/s² 0 0 3.36 2
19:00 0 J/kg 0.9 K 0 % 0 % 0 % 0 m²/s² 0 0 3.84 3
20:00 1 J/kg 0.7 K 0 % 0 % 0 % 0 m²/s² 0 0 4.27 3
21:00 0 J/kg 1.2 K 0 % 0 % 0 % 0 m²/s² 0 0 5.37 2
22:00 0 J/kg 2.1 K 0 % 0 % 0 % 0 m²/s² 0 0 7.77 1
23:00 0 J/kg 1.4 K 0 % 0 % 0 % 0 m²/s² 0 0 9.29 1
 05:35     20:51    Daglengte: 15:16 Morgen
00:00 0 J/kg 1.6 K 0 % 0 % 0 % 0 m²/s² 0 0 10.09 3
01:00 0 J/kg 1.9 K 0 % 0 % 0 % 0 m²/s² 0 0 10.39 3
02:00 0 J/kg 2.5 K 0 % 0 % 0 % 0 m²/s² 0 0 9.19 3
03:00 0 J/kg 4.7 K 0 % 0 % 0 % 0 m²/s² 0 0 9.08 3
04:00 0 J/kg 4.9 K 0 % 0 % 0 % 0 m²/s² 0 0 8.86 3
05:00 0 J/kg 3.3 K 0 % 0 % 0 % 0 m²/s² 0 0 7.05 3
06:00 0 J/kg 0.7 K 0 % 0 % 0 % 0 m²/s² 0 0 3.25 3
07:00 0 J/kg -1.7 K 0 % 0 % 0 % 0 m²/s² 0 0 -0.59 3
08:00 0 J/kg -2.9 K 0 % 0 % 0 % 0 m²/s² 0 0 -1.1 2
09:00 0 J/kg -3.0 K 0 % 0 % 0 % 0 m²/s² 0 0 -1.2 2
10:00 78 J/kg -2.8 K 0 % 0 % 0 % 0 m²/s² 0 0 -1.9 2
11:00 612 J/kg -2.4 K 0 % 0 % 0 % 0 m²/s² 0 0 -2.19 2
12:00 933 J/kg -3.1 K 0 % 0 % 0 % 0 m²/s² 0 0 -2.23 1
13:00 1207 J/kg -3.7 K 0 % 0 % 0 % 0 m²/s² 0 0 -2.83 2
14:00 1395 J/kg -4.3 K 0 % 0 % 0 % 0 m²/s² 0 0 -3.49 2
15:00 1453 J/kg -4.3 K 0 % 0 % 0 % 0 m²/s² 0 0 -3.13 2
16:00 1301 J/kg -3.9 K 0 % 0 % 0 % 0 m²/s² 0 0 -2.22 3
17:00 1644 J/kg -4.7 K 0 % 0 % 0 % 0 m²/s² 0 0 -3.53 80
18:00 1859 J/kg -5.2 K 0 % 0 % 0 % 0 m²/s² 0 0 -3.76 80
19:00 1853 J/kg -5.3 K 0 % 0 % 0 % 0 m²/s² 0 0 -3.92 3
20:00 1497 J/kg -4.4 K 0 % 0 % 0 % 0 m²/s² 0 0 -2.9 3
21:00 1293 J/kg -3.9 K 0 % 0 % 0 % 0 m²/s² 0 0 -2.4 3
22:00 887 J/kg -3.0 K 0 % 0 % 0 % 0 m²/s² 0 0 -1.5 3
23:00 388 J/kg -2.1 K 0 % 0 % 0 % 0 m²/s² 0 0 -0.48 2
 05:37     20:49    Daglengte: 15:12 Dinsdag 16 Aug
00:00 133 J/kg -1.9 K 0 % 0 % 0 % 0 m²/s² 0 0 -0.58 3
01:00 0 J/kg -2.3 K 0 % 0 % 0 % 0 m²/s² 0 0 -1.34 3
02:00 0 J/kg -2.2 K 0 % 0 % 0 % 0 m²/s² 0 0 -1.33 2
03:00 0 J/kg -2.5 K 0 % 0 % 0 % 0 m²/s² 0 0 -1.96 2
04:00 15 J/kg -2.9 K 0 % 0 % 0 % 0 m²/s² 0 0 -2.9 2
05:00 0 J/kg -3.5 K 0 % 0 % 0 % 0 m²/s² 0 0 -2.96 2
06:00 0 J/kg -3.0 K 0 % 0 % 0 % 0 m²/s² 0 0 -2.34 3
07:00 102 J/kg -2.8 K 0 % 0 % 0 % 0 m²/s² 0 0 -2.08 80
08:00 507 J/kg -3.3 K 0 % 0 % 0 % 0 m²/s² 0 0 -2.76 95
09:00 957 J/kg -3.7 K 0 % 0 % 0 % 0 m²/s² 0 0 -2.68 80
10:00 1247 J/kg -4.7 K 0 % 0 % 0 % 0 m²/s² 0 0 -3.68 80
11:00 1472 J/kg -4.9 K 0 % 0 % 0 % 0 m²/s² 0 0 -3.94 80
12:00 1402 J/kg -4.9 K 0 % 0 % 0 % 0 m²/s² 0 0 -4.33 80
13:00 1449 J/kg -4.9 K 0 % 0 % 0 % 0 m²/s² 0 0 -4.18 3
14:00 1557 J/kg -5.1 K 0 % 0 % 0 % 0 m²/s² 0 0 -4.38 95
15:00 1558 J/kg -4.3 K 0 % 0 % 0 % 0 m²/s² 0 0 -4.27 95
16:00 1456 J/kg -5.0 K 0 % 0 % 0 % 0 m²/s² 0 0 -4.22 80
17:00 1558 J/kg -5.9 K 0 % 0 % 0 % 0 m²/s² 0 0 -4.67 80
18:00 1941 J/kg -6.3 K 0 % 0 % 0 % 0 m²/s² 0 0 -3.18 80
19:00 1338 J/kg -4.7 K 0 % 0 % 0 % 0 m²/s² 0 0 -0.65 80
20:00 367 J/kg -1.1 K 0 % 0 % 0 % 0 m²/s² 0 0 3.19 2
21:00 69 J/kg -0.3 K 0 % 0 % 0 % 0 m²/s² 0 0 3.99 3
22:00 0 J/kg -0.9 K 0 % 0 % 0 % 0 m²/s² 0 0 2.67 3
23:00 0 J/kg -1.4 K 0 % 0 % 0 % 0 m²/s² 0 0 1.48 2
 05:40     20:46    Daglengte: 15:06 Woensdag 17 Aug
00:00 0 J/kg -1.4 K 0 % 0 % 0 % 0 m²/s² 0 0 1.39 3
01:00 0 J/kg -1.7 K 0 % 0 % 0 % 0 m²/s² 0 0 1.09 2
02:00 0 J/kg -2.4 K 0 % 0 % 0 % 0 m²/s² 0 0 0.39 2
03:00 0 J/kg -2.6 K 0 % 0 % 0 % 0 m²/s² 0 0 -0.62 3
04:00 5 J/kg -2.8 K 0 % 0 % 0 % 0 m²/s² 0 0 -1.42 2
05:00 83 J/kg -2.6 K 0 % 0 % 0 % 0 m²/s² 0 0 -1.58 3
06:00 127 J/kg -2.5 K 0 % 0 % 0 % 0 m²/s² 0 0 -0.94 3
07:00 108 J/kg -2.0 K 0 % 0 % 0 % 0 m²/s² 0 0 0.55 2
08:00 196 J/kg -2.0 K 0 % 0 % 0 % 0 m²/s² 0 0 -0.62 3
09:00 472 J/kg -1.8 K 0 % 0 % 0 % 0 m²/s² 0 0 -0.24 2
10:00 1026 J/kg -2.9 K 0 % 0 % 0 % 0 m²/s² 0 0 -1.1 3
11:00 1225 J/kg -3.2 K 0 % 0 % 0 % 0 m²/s² 0 0 -1.55 2
12:00 1392 J/kg -3.3 K 0 % 0 % 0 % 0 m²/s² 0 0 -1.86 2
13:00 1347 J/kg -3.1 K 0 % 0 % 0 % 0 m²/s² 0 0 -1 3
14:00 1252 J/kg -3.0 K 0 % 0 % 0 % 0 m²/s² 0 0 -0.06 3
Temp Baro Wind Neerslag
  EWN Forecast EWN WRFDA DWD ICON FMI HIRLAM MET Norway GFS
 05:33     20:54    Daglengte: 15:21 Vandaag
17:00 29.1° 1013.4 hPa 1.0 m/s 0.0 mm 28.1° 1013.4 hPa 1.8 m/s 0.0 mm 28.9° 1013.5 hPa 2.1 m/s -2.0 mm 32.1° 1013.0 hPa 0.6 m/s 0.0 mm 29.2° 1013.1 hPa 1.6 m/s
20:00 25.4° 1012.2 hPa 1.2 m/s 0.0 mm 25.2° 1012.3 hPa 1.2 m/s 0.0 mm 24.9° 1012.1 hPa 1.4 m/s 0.0 mm 26.8° 1012.0 hPa 1.2 m/s 0.0 mm 23.5° 1012.2 hPa 1.5 m/s
23:00 19.1° 1012.5 hPa 1.7 m/s 0.0 mm 19.6° 1011.8 hPa 3.5 m/s 0.0 mm 18.0° 1012.7 hPa 1.8 m/s 0.0 mm 18.8° 1012.6 hPa 1.6 m/s 0.0 mm 20.5° 1012.2 hPa 4.2 m/s
 05:35     20:51    Daglengte: 15:16 Morgen
02:00 17.9° 1012.5 hPa 2.1 m/s 0.0 mm 15.9° 1011.6 hPa 3.1 m/s 0.0 mm 17.8° 1012.6 hPa 2.0 m/s 0.0 mm 16.9° 1012.4 hPa 1.5 m/s 0.0 mm 17.1° 1012.0 hPa 2.5 m/s
05:00 15.8° 1011.7 hPa 1.7 m/s 0.0 mm 15.0° 1010.4 hPa 2.9 m/s 0.0 mm 15.5° 1012.0 hPa 1.1 m/s 0.0 mm 14.8° 1011.8 hPa 1.6 m/s 0.0 mm 16.1° 1011.2 hPa 2.2 m/s
08:00 19.9° 1010.7 hPa 2.5 m/s 0.0 mm 20.2° 1009.5 hPa 3.2 m/s 0.0 mm 20.0° 1011.2 hPa 2.5 m/s 0.0 mm 19.1° 1010.0 hPa 1.9 m/s 0.0 mm 19.5° 1010.6 hPa 3.0 m/s
11:00 24.3° 1010.1 hPa 3.2 m/s 0.0 mm 25.6° 1009.2 hPa 5.0 m/s 0.2 mm 24.9° 1010.3 hPa 3.2 m/s 0.0 mm 23.1° 1009.5 hPa 1.8 m/s 0.0 mm 25.0° 1009.6 hPa 3.9 m/s
14:00 25.7° 1008.9 hPa 3.6 m/s 0.0 mm 26.7° 1008.1 hPa 3.3 m/s 2.7 mm 28.4° 1008.9 hPa 4.4 m/s 0.0 mm 24.5° 1008.5 hPa 2.8 m/s 0.0 mm 28.9° 1008.1 hPa 3.0 m/s
17:00 25.8° 1008.2 hPa 2.5 m/s 0.0 mm 27.6° 1006.8 hPa 2.8 m/s 8.0 mm 25.6° 1008.4 hPa 2.9 m/s 0.3 mm 24.4° 1007.5 hPa 1.9 m/s 0.0 mm 27.2° 1007.7 hPa 3.0 m/s
20:00 23.2° 1007.8 hPa 1.6 m/s 0.0 mm 23.4° 1006.8 hPa 3.5 m/s 13.3 mm 22.4° 1008.3 hPa 0.9 m/s 0.4 mm 22.9° 1007.0 hPa 1.8 m/s 0.0 mm 20.5° 1007.5 hPa 2.0 m/s
23:00 20.4° 1008.3 hPa 2.2 m/s 0.0 mm 20.6° 1006.7 hPa 3.3 m/s 17.9 mm 19.9° 1009.1 hPa 2.7 m/s 0.0 mm 20.1° 1008.0 hPa 2.0 m/s 0.0 mm 18.6° 1008.5 hPa 2.1 m/s
 05:37     20:49    Daglengte: 15:12 Dinsdag 16 Aug
02:00 18.9° 1008.3 hPa 2.8 m/s 0.0 mm 19.2° 1006.4 hPa 4.5 m/s 18.2 mm 18.2° 1008.8 hPa 2.4 m/s 0.0 mm 18.5° 1007.4 hPa 2.6 m/s 0.0 mm 17.3° 1008.4 hPa 3.4 m/s
05:00 18.0° 1007.6 hPa 2.3 m/s 0.0 mm 18.7° 1005.6 hPa 4.0 m/s 18.3 mm 17.6° 1008.5 hPa 2.1 m/s 0.0 mm 17.5° 1006.3 hPa 1.8 m/s 0.0 mm 16.4° 1007.1 hPa 2.0 m/s
08:00 19.2° 1007.3 hPa 3.1 m/s 0.0 mm 21.6° 1005.2 hPa 4.3 m/s 18.5 mm 18.6° 1008.2 hPa 3.2 m/s 1.1 mm 18.7° 1006.0 hPa 2.2 m/s 0.0 mm 19.7° 1006.9 hPa 3.1 m/s
11:00 24.1° 1007.3 hPa 3.9 m/s 2.4 mm 26.7° 1005.3 hPa 5.3 m/s 18.5 mm 21.3° 1008.2 hPa 3.1 m/s 1.3 mm 27.0° 1006.9 hPa 4.6 m/s
14:00 24.7° 1006.9 hPa 3.7 m/s 5.6 mm 28.9° 1005.0 hPa 5.4 m/s 18.5 mm 20.9° 1007.2 hPa 3.4 m/s 1.9 mm 26.8° 1006.7 hPa 4.4 m/s
17:00 21.5° 1006.8 hPa 3.3 m/s 12.6 mm 22.5° 1005.0 hPa 3.3 m/s 46.6 mm 20.1° 1007.0 hPa 3.8 m/s 3.3 mm 21.5° 1007.9 hPa 3.1 m/s
20:00 20.3° 1007.1 hPa 2.6 m/s 17.4 mm 22.6° 1005.0 hPa 2.5 m/s 61.0 mm 19.2° 1007.4 hPa 2.8 m/s 0.7 mm 19.4° 1008.6 hPa 1.9 m/s
23:00 18.6° 1008.2 hPa 2.7 m/s 22.0 mm 18.4° 1006.0 hPa 2.7 m/s 61.1 mm 18.2° 1008.6 hPa 2.5 m/s 0.0 mm 16.7° 1010.2 hPa 1.2 m/s
 05:40     20:46    Daglengte: 15:06 Woensdag 17 Aug
02:00 18.0° 1008.8 hPa 2.3 m/s 7.0 mm 17.1° 1006.3 hPa 2.8 m/s 61.1 mm 17.8° 1009.1 hPa 2.0 m/s 0.0 mm 16.0° 1010.9 hPa 0.6 m/s
05:00 17.5° 1008.8 hPa 2.4 m/s 0.0 mm 17.2° 1006.9 hPa 2.5 m/s 61.1 mm 17.2° 1008.9 hPa 2.5 m/s 0.0 mm 15.8° 1011.0 hPa 1.3 m/s
08:00 18.2° 1009.1 hPa 3.1 m/s 0.0 mm 18.2° 1008.2 hPa 2.1 m/s 61.1 mm 18.2° 1009.3 hPa 3.3 m/s 0.0 mm 18.5° 1011.6 hPa 1.5 m/s
11:00 22.0° 1009.6 hPa 4.1 m/s 0.0 mm 23.1° 1009.5 hPa 2.7 m/s 61.1 mm 21.7° 1009.6 hPa 4.4 m/s 0.0 mm 24.7° 1012.2 hPa 2.1 m/s
14:00 23.2° 1010.0 hPa 4.2 m/s 0.0 mm 26.1° 1009.7 hPa 3.0 m/s 61.1 mm 22.5° 1010.0 hPa 4.5 m/s 0.0 mm 27.8° 1011.9 hPa 3.0 m/s
17:00 27.0° 1011.6 hPa 3.4 m/s 14.4 mm 27.0° 1011.6 hPa 3.4 m/s 14.4 mm
20:00 21.4° 1011.7 hPa 0.6 m/s 14.4 mm 21.4° 1011.7 hPa 0.6 m/s 14.4 mm
23:00 18.7° 1012.2 hPa 0.5 m/s 14.4 mm 18.7° 1012.2 hPa 0.5 m/s 14.4 mm
 05:42     20:43    Daglengte: 15:01 Donderdag 18 Aug
02:00 18.1° 1012.1 hPa 1.1 m/s 14.4 mm 18.1° 1012.1 hPa 1.1 m/s 14.4 mm
05:00 17.5° 1011.6 hPa 1.3 m/s 14.4 mm 17.5° 1011.6 hPa 1.3 m/s 14.4 mm
08:00 20.2° 1011.9 hPa 1.1 m/s 14.5 mm 20.2° 1011.9 hPa 1.1 m/s 14.5 mm
11:00 25.1° 1011.8 hPa 1.4 m/s 14.6 mm 25.1° 1011.8 hPa 1.4 m/s 14.6 mm
14:00 27.7° 1011.1 hPa 2.5 m/s 14.6 mm 27.7° 1011.1 hPa 2.5 m/s 14.6 mm
17:00 28.4° 1010.0 hPa 0.8 m/s 14.6 mm 28.4° 1010.0 hPa 0.8 m/s 14.6 mm
20:00 22.6° 1009.8 hPa 2.4 m/s 14.6 mm 22.6° 1009.8 hPa 2.4 m/s 14.6 mm
23:00 19.8° 1010.3 hPa 3.0 m/s 15.8 mm 19.8° 1010.3 hPa 3.0 m/s 15.8 mm
 05:44     20:41    Daglengte: 14:57 Vrijdag 19 Aug
02:00 17.3° 1010.2 hPa 1.6 m/s 16.5 mm 17.3° 1010.2 hPa 1.6 m/s 16.5 mm
05:00 16.5° 1010.1 hPa 1.7 m/s 16.6 mm 16.5° 1010.1 hPa 1.7 m/s 16.6 mm
08:00 19.2° 1010.0 hPa 1.6 m/s 16.9 mm 19.2° 1010.0 hPa 1.7 m/s 16.9 mm
11:00 23.6° 1010.0 hPa 1.9 m/s 17.0 mm 23.6° 1010.0 hPa 1.9 m/s 17.0 mm
14:00 24.5° 1009.3 hPa 2.1 m/s 17.2 mm 24.5° 1009.3 hPa 2.1 m/s 17.2 mm
17:00 21.4° 1008.7 hPa 2.7 m/s 18.8 mm 21.4° 1008.7 hPa 2.7 m/s 18.8 mm
20:00 17.1° 1009.4 hPa 2.6 m/s 23.2 mm 17.1° 1009.4 hPa 2.6 m/s 23.2 mm
23:00 15.2° 1009.5 hPa 2.7 m/s 23.9 mm 15.2° 1009.5 hPa 2.7 m/s 23.9 mm
 05:46     20:38    Daglengte: 14:52 Zaterdag 20 Aug
02:00 14.8° 1009.5 hPa 2.3 m/s 23.9 mm 14.8° 1009.5 hPa 2.3 m/s 23.9 mm
05:00 13.9° 1009.5 hPa 1.6 m/s 23.9 mm 13.9° 1009.5 hPa 1.6 m/s 23.9 mm
08:00 15.3° 1009.6 hPa 2.2 m/s 23.9 mm 15.3° 1009.6 hPa 2.2 m/s 23.9 mm
11:00 17.7° 1009.5 hPa 3.1 m/s 23.9 mm 17.7° 1009.5 hPa 3.1 m/s 23.9 mm
14:00 19.7° 1009.3 hPa 3.4 m/s 23.9 mm 19.7° 1009.3 hPa 3.4 m/s 23.9 mm
20:00 15.8° 1008.7 hPa 3.7 m/s 23.9 mm 15.8° 1008.7 hPa 3.7 m/s 23.9 mm
23:00 14.1° 1008.6 hPa 3.8 m/s 23.9 mm 14.1° 1008.6 hPa 3.8 m/s 23.9 mm
 05:48     20:36    Daglengte: 14:48 Zondag 21 Aug
02:00 13.1° 1007.5 hPa 3.4 m/s 23.9 mm 13.1° 1007.5 hPa 3.4 m/s 23.9 mm
05:00 12.8° 1005.9 hPa 3.7 m/s 23.9 mm 12.8° 1005.9 hPa 3.7 m/s 23.9 mm
08:00 14.0° 1004.8 hPa 4.5 m/s 23.9 mm 14.0° 1004.8 hPa 4.5 m/s 23.9 mm
11:00 16.7° 1003.5 hPa 5.2 m/s 23.9 mm 16.7° 1003.5 hPa 5.2 m/s 23.9 mm
14:00 18.9° 1002.9 hPa 5.2 m/s 23.9 mm 18.9° 1002.9 hPa 5.2 m/s 23.9 mm
17:00 17.8° 1003.7 hPa 4.3 m/s 24.0 mm 17.8° 1003.7 hPa 4.3 m/s 24.0 mm
20:00 14.8° 1004.6 hPa 2.7 m/s 24.6 mm 14.8° 1004.6 hPa 2.7 m/s 24.6 mm
 05:50     20:33    Daglengte: 14:43 Maandag 22 Aug
02:00 13.0° 1005.7 hPa 2.2 m/s 26.1 mm 13.0° 1005.7 hPa 2.2 m/s 26.1 mm
08:00 13.1° 1006.5 hPa 2.9 m/s 26.7 mm 13.1° 1006.5 hPa 2.9 m/s 26.7 mm
14:00 18.4° 1008.7 hPa 6.0 m/s 26.7 mm 18.4° 1008.7 hPa 6.0 m/s 26.7 mm
20:00 15.3° 1009.9 hPa 3.6 m/s 26.7 mm 15.3° 1009.9 hPa 3.6 m/s 26.7 mm
 05:52     20:30    Daglengte: 14:38 Dinsdag 23 Aug
02:00 13.7° 1008.8 hPa 5.0 m/s 27.9 mm 13.7° 1008.8 hPa 5.0 m/s 27.9 mm
08:00 15.2° 1008.9 hPa 2.9 m/s 31.9 mm 15.2° 1008.9 hPa 2.9 m/s 31.9 mm
14:00 18.8° 1010.1 hPa 2.8 m/s 34.3 mm 18.8° 1010.1 hPa 2.8 m/s 34.3 mm
20:00 16.8° 1011.8 hPa 1.8 m/s 35.3 mm 16.8° 1011.8 hPa 1.8 m/s 35.3 mm
 05:54     20:28    Daglengte: 14:34 Woensdag 24 Aug
02:00 13.8° 1013.9 hPa 1.7 m/s 35.3 mm 13.8° 1013.9 hPa 1.7 m/s 35.3 mm
08:00 13.3° 1015.8 hPa 3.0 m/s 35.3 mm 13.3° 1015.8 hPa 3.0 m/s 35.3 mm
14:00 21.5° 1016.5 hPa 1.5 m/s 0.5 mm
20:00 17.3° 1017.0 hPa 0.8 m/s 0.6 mm
 05:57     20:25    Daglengte: 14:28 Donderdag 25 Aug
02:00 13.2° 1018.4 hPa 1.0 m/s 0.1 mm
08:00 15.1° 1018.8 hPa 1.1 m/s 0.1 mm
14:00 22.9° 1018.6 hPa 1.0 m/s 0.3 mm
20:00 17.9° 1018.2 hPa 0.3 m/s 0.7 mm
 05:59     20:22    Daglengte: 14:23 Vrijdag 26 Aug
02:00 13.6° 1019.0 hPa 0.9 m/s 0.4 mm
08:00 15.0° 1018.7 hPa 1.1 m/s 0.3 mm
14:00 21.9° 1018.2 hPa 0.9 m/s 1.3 mm
20:00 17.7° 1017.5 hPa 0.5 m/s 0.8 mm
 06:01     20:20    Daglengte: 14:19 Zaterdag 27 Aug
02:00 13.8° 1017.9 hPa 1.0 m/s 0.2 mm
08:00 14.8° 1017.8 hPa 0.8 m/s 0.1 mm
14:00 21.1° 1017.5 hPa 0.7 m/s 0.3 mm
20:00 16.9° 1017.2 hPa 0.4 m/s 0.5 mm
 06:03     20:17    Daglengte: 14:14 Zondag 28 Aug
02:00 12.8° 1017.9 hPa 0.6 m/s 0.2 mm
08:00 14.2° 1017.5 hPa 0.6 m/s 0.3 mm
14:00 21.6° 1016.6 hPa 1.2 m/s 1.0 mm
20:00 17.1° 1015.6 hPa 0.9 m/s 0.5 mm
 06:05     20:14    Daglengte: 14:09 Maandag 29 Aug
02:00 13.0° 1015.4 hPa 0.7 m/s 0.1 mm
08:00 14.0° 1014.7 hPa 1.1 m/s 0.4 mm
14:00 20.3° 1014.6 hPa 2.2 m/s 0.4 mm
FMI Hirlam - 7.5 km EWN WRFDA - 12 km DWD ICON - 7 km GFS - 25 km Basiskaart






























































Updatetijd (Europe/Brussels) Resolutie Lengte Stap
FMI Hirlam 07:15, 13:15, 19:15, 01:15 7.5 km 49h 1h
EWN WRFDA 10:15, 16:15, 22:15, 04:15 12 km 73h 1h
DWD ICON 11:45, 17:45, 23:45, 05:45 7 km 75h 1h
GFS 08:15, 14:15, 20:15, 02:15 25 km 237h 3h
30+ mm
25-30 mm
20-25 mm
15-20 mm
10-15 mm
6-10 mm
4-6 mm
2-4 mm
1-2 mm
0.5-1 mm
0.2-0.5 mm
0.1-0.2 mm
30+ mm
25-30 mm
20-25 mm
15-20 mm
10-15 mm
6-10 mm
4-6 mm
2-4 mm
1-2 mm
0.5-1 mm
0.2-0.5 mm
0.1-0.2 mm
Sneeuwval
Natte sneeuw
Hagel
Vorst
30+ mm
25-30 mm
20-25 mm
15-20 mm
10-15 mm
6-10 mm
4-6 mm
2-4 mm
1-2 mm
0.5-1 mm
0.2-0.5 mm
0.1-0.2 mm
Sneeuwval
Natte sneeuw
Hagel
Vorst
Onweer
50 mm
40 mm
30 mm
26 mm
22 mm
18 mm
14 mm
10 mm
9 mm
8 mm
7 mm
6 mm
5 mm
4.5 mm
4 mm
3.5 mm
3 mm
2.5 mm
2 mm
1.5 mm
1 mm
0.8 mm
0.6 mm
0.4 mm
0.2 mm
0.05 mm
35°
30°
25°
20°
15°
10°
-5°
-10°
-15°
-20°
-25°
-30°
-35°
33> m/s
29 m/s
25 m/s
21 m/s
17 m/s
14 m/s
11 m/s
8 m/s
5 m/s
3 m/s
0 m/s
2600 J/kg
2400 J/kg
2200 J/kg
2000 J/kg
1800 J/kg
1600 J/kg
1400 J/kg
1200 J/kg
1000 J/kg
800 J/kg
600 J/kg
400 J/kg
200 J/kg
70 dBZ
65 dBZ
60 dBZ
55 dBZ
50 dBZ
45 dBZ
40 dBZ
35 dBZ
30 dBZ
25 dBZ
20 dBZ
15 dBZ
10 dBZ
5 dBZ
-1 K
-2 K
-3 K
-4 K
-5 K
-6 K
-7 K
-8 K
-9 K
950 m²/s²
900 m²/s²
850 m²/s²
800 m²/s²
750 m²/s²
700 m²/s²
650 m²/s²
600 m²/s²
550 m²/s²
500 m²/s²
450 m²/s²
400 m²/s²
350 m²/s²
300 m²/s²
250 m²/s²
200 m²/s²
150 m²/s²
100 m²/s²
46 m/s
44 m/s
42 m/s
40 m/s
38 m/s
36 m/s
34 m/s
32 m/s
30 m/s
28 m/s
26 m/s
24 m/s
22 m/s
20 m/s
16 m/s
12 m/s
8 m/s
4 m/s
30 m/s
28 m/s
26 m/s
24 m/s
22 m/s
20 m/s
18 m/s
16 m/s
14 m/s
12 m/s
10 m/s
8 m/s
6 m/s
4 m/s
2 m/s
3.0
2.8
2.6
2.4
2.2
2.0
1.8
1.6
1.4
1.2
1.0
0.8
0.6
0.4
0.2
15
14
13
12
11
10
9
8
7
6
5
4
3
2
1
90%
80%
70%
60%
50%
40%
30%
20%
10%
42
40
38
36
34
32
30
28
26
24
22
20
18
16
14
12
90+ cm
80-90 cm
70-80 cm
60-70 cm
50-60 cm
40-50 cm
30-40 cm
20-30 cm
10-20 cm
1-10 cm
Sneeuwval
Natte sneeuw
Regen
>120 mm
115 mm
110 mm
105 mm
100 mm
95 mm
90 mm
85 mm
80 mm
75 mm
70 mm
65 mm
60 mm
55 mm
50 mm
45 mm
45 mm
40 mm
35 mm
30 mm
25 mm
20 mm
15 mm
10 mm
5 mm
0.1 mm
960 hPa
880 hPa
800 hPa
720 hPa
640 hPa
560 hPa
584 gpdm
568 gpdm
552 gpdm
536 gpdm
520 gpdm
504 gpdm
488 gpdm
Extreem zwaar Noodweer Kans op onweer
15% 15% 5% 50% 15%

Dag




Kaart






35°
30°
25°
20°
15°
10°
-5°
-10°
-15°
-20°